Klamath Falls, OR

11:08 AM PST on February 20, 2017 (GMT -0800)
Klamath Falls International

Weather History for KLMT - October, 2011

Change the Weather History Date:

Sunday, October 30, 2011

  Actual Average Record
Temperature  
Mean Temperature 48 °F 42 °F  
Max Temperature 65 °F 55 °F 70 °F (1949)
Min Temperature 30 °F 28 °F 15 °F (2002)
Degree Days  
Heating Degree Days 17 24  
Month to date heating degree days 540 537  
Since 1 July heating degree days 763 893  
Cooling Degree Days 0 0  
Month to date cooling degree days 0 0  
Year to date cooling degree days 104 169  
Moisture  
Dew Point 37 °F    
Average Humidity 93    
Maximum Humidity 100    
Minimum Humidity 52    
Precipitation  
Precipitation 0.00 in 0.07 in 1.32 in (1956)
Month to date precipitation 0.54 0.98  
Year to date precipitation 6.14 11.25  
Sea Level Pressure  
Sea Level Pressure 30.26 in    
Wind  
Wind Speed 2 mph (NNW)    
Max Wind Speed 7 mph    
Max Gust Speed 8 mph    
Visibility 4 miles    
Events Fog , Snow    
T = Trace of Precipitation, MM = Missing Value Source: NWS Daily Summary

Daily Weather History Graph

Daily Weather History Graph

Search for Another Location

Airport or City:

Trip Planner

Search our weather history database for the weather conditions in past years. The results will help you decide how hot, cold, wet, or windy it might be!

Date:

Astronomy

Oct. 30, 2011 Rise Set
Actual Time 7:37 AM PDT 6:03 PM PDT
Civil Twilight 7:08 AM PDT 6:32 PM PDT
Nautical Twilight 6:35 AM PDT 7:05 PM PDT
Astronomical Twilight 6:02 AM PDT 7:37 PM PDT
Moon 12:04 PM PDT (10/30) 9:35 PM PDT (10/30)
Length of Visible Light 11h 24m
Length of Day
10h 26m
Waxing Crescent, 21% of the Moon is Illuminated
Oct 30
Waxing Crescent
Nov 2
First Quarter
Nov 10
Full
Nov 18
Last Quarter
Nov 24
New

Hourly Weather History & Observations

Time (PDT) Temp. Windchill Dew Point Humidity Pressure Visibility Wind Dir Wind Speed Gust Speed Precip Events Conditions
12:36 AM 33.8 °F - 33.8 °F 100% 30.28 in 7.0 mi Calm Calm - N/A   Partly Cloudy
12:48 AM 33.8 °F - 33.8 °F 100% 30.28 in 2.5 mi Calm Calm - N/A   Mostly Cloudy
12:53 AM 34.0 °F - 33.1 °F 96% 30.27 in 2.0 mi Calm Calm - N/A   Mostly Cloudy
12:58 AM 33.8 °F 30.8 °F 33.8 °F 100% 30.28 in 4.0 mi North 3.5 mph - N/A   Scattered Clouds
1:08 AM 35.6 °F - 33.8 °F 93% 30.28 in 2.0 mi Calm Calm - N/A   Scattered Clouds
1:18 AM 35.6 °F - 35.6 °F 100% 30.28 in 6.0 mi Calm Calm - N/A   Clear
1:45 AM 32.0 °F 28.7 °F 32.0 °F 100% 30.28 in 1.5 mi Variable 3.5 mph - N/A   Clear
1:53 AM 33.1 °F 30.0 °F 32.0 °F 96% 30.26 in 1.0 mi NE 3.5 mph - N/A   Mist
2:00 AM 33.8 °F - 33.8 °F 100% 30.28 in 0.5 mi Calm Calm - N/A Fog Fog
2:22 AM 33.8 °F - 33.8 °F 100% 30.27 in 2.0 mi Calm Calm - N/A   Mostly Cloudy
2:31 AM 32.0 °F - 32.0 °F 100% 30.28 in 6.0 mi Calm Calm - N/A   Overcast
2:40 AM 32.0 °F 28.7 °F 32.0 °F 100% 30.28 in 1.5 mi South 3.5 mph - N/A   Overcast
2:48 AM 32.0 °F - 32.0 °F 100% 30.28 in 0.5 mi Calm Calm - N/A Fog Fog
2:53 AM 32.0 °F - 32.0 °F 100% 30.26 in 0.5 mi Calm Calm - N/A Fog Fog
3:14 AM 30.2 °F - 30.2 °F 100% 30.27 in 0.2 mi Calm Calm - 0.00 in Fog , Snow Light Snow
3:20 AM 30.2 °F - 30.2 °F 100% 30.27 in 1.0 mi Calm Calm - 0.00 in   Mist
3:24 AM 30.2 °F - 30.2 °F 100% 30.27 in 2.0 mi Calm Calm - 0.00 in   Partly Cloudy
3:33 AM 30.2 °F - 30.2 °F 100% 30.27 in 8.0 mi Calm Calm - 0.00 in   Scattered Clouds
3:44 AM 30.2 °F - 30.2 °F 100% 30.27 in 6.0 mi Calm Calm - 0.00 in   Mostly Cloudy
3:53 AM 30.9 °F - 30.0 °F 96% 30.25 in 10.0 mi Calm Calm - 0.00 in   Overcast
4:13 AM 33.8 °F - 33.8 °F 100% 30.27 in 1.5 mi Calm Calm - N/A   Overcast
4:20 AM 33.8 °F - 33.8 °F 100% 30.27 in 0.2 mi Calm Calm - N/A Fog Fog
4:51 AM 32.0 °F - 32.0 °F 100% 30.27 in 0.2 mi Calm Calm - N/A Fog Fog
4:53 AM 32.0 °F - 32.0 °F 100% 30.27 in 0.2 mi Calm Calm - N/A Fog Fog
5:02 AM 33.8 °F - 33.8 °F 100% 30.27 in 0.2 mi Calm Calm - N/A Fog Fog
5:41 AM 33.8 °F 30.8 °F 33.8 °F 100% 30.28 in 0.2 mi SE 3.5 mph - N/A Fog Fog
5:53 AM 33.1 °F - 33.1 °F 100% 30.26 in 0.2 mi Calm Calm - N/A Fog Fog
6:00 AM 33.8 °F - 33.8 °F 100% 30.28 in 0.1 mi Calm Calm - N/A Fog Fog
6:53 AM 34.0 °F - 34.0 °F 100% 30.27 in 0.1 mi Calm Calm - N/A Fog Fog
7:53 AM 34.0 °F - 34.0 °F 100% 30.30 in 0.1 mi Calm Calm - N/A Fog Fog
8:50 AM 35.6 °F - 35.6 °F 100% 30.30 in 0.5 mi Calm Calm - N/A Fog Fog
8:53 AM 36.0 °F - 36.0 °F 100% 30.31 in 0.5 mi Calm Calm - N/A Fog Fog
9:53 AM 39.0 °F - 39.0 °F 100% 30.30 in 0.5 mi Calm Calm - N/A Fog Fog
10:53 AM 42.1 °F - 42.1 °F 100% 30.30 in 0.5 mi Calm Calm - N/A Fog Fog
11:27 AM 42.8 °F - 42.8 °F 100% 30.29 in 1.0 mi Calm Calm - N/A   Mostly Cloudy
11:44 AM 44.6 °F - 44.6 °F 100% 30.29 in 2.0 mi Calm Calm - N/A   Mostly Cloudy
11:53 AM 44.1 °F - 44.1 °F 100% 30.30 in 3.0 mi Calm Calm - N/A   Mostly Cloudy
12:10 PM 48.2 °F - 44.6 °F 87% 30.28 in 10.0 mi Calm Calm - N/A   Scattered Clouds
12:53 PM 55.9 °F - 46.0 °F 69% 30.25 in 10.0 mi Calm Calm - N/A   Scattered Clouds
1:53 PM 60.1 °F - 46.0 °F 60% 30.21 in 10.0 mi Calm Calm - N/A   Mostly Cloudy
2:53 PM 62.1 °F - 46.0 °F 56% 30.19 in 10.0 mi Calm Calm - N/A   Mostly Cloudy
3:53 PM 64.4 °F - 46.4 °F 52% 30.20 in 10.0 mi Calm Calm - N/A   Mostly Cloudy
5:53 PM 57.0 °F - 46.0 °F 67% 30.18 in 10.0 mi NW 4.6 mph - N/A   Scattered Clouds
6:53 PM 55.0 °F - 45.0 °F 69% 30.19 in 10.0 mi NW 4.6 mph - N/A   Mostly Cloudy
7:53 PM 55.0 °F - 45.0 °F 69% 30.19 in 7.0 mi NNW 3.5 mph - N/A   Mostly Cloudy
8:53 PM 55.0 °F - 46.9 °F 74% 30.19 in 7.0 mi NW 5.8 mph - N/A   Mostly Cloudy
9:53 PM 51.1 °F - 45.0 °F 80% 30.19 in 7.0 mi WNW 5.8 mph - N/A   Mostly Cloudy
10:53 PM 44.1 °F - 42.1 °F 93% 30.21 in 10.0 mi Calm Calm - N/A   Clear
11:53 PM 41.0 °F 39.0 °F 39.9 °F 96% 30.21 in 10.0 mi ESE 3.5 mph - N/A   Clear